OBJECT G, 44885

Orbit data source: Space-Track

You're viewing an Uncataloged Satellite

Recently launched and/or uncataloged satellites may have evolving metadata. Metadata may include but not limited to: Owner, Maufacturer, Bus, Motor, and Mission.

OBJECT G, 44885 is a satellite in SSO that was launched on Fri, 20 Dec 2019 UTC via a CHANG ZHENG 4B launch vehicle from the Taiyaun Space Center, China (TSC). Unknown objects in Earth's orbit typically refer to objects detected orbiting the Earth but have not yet been identified or cataloged. These objects could be anything from previously untracked satellites, spent rocket stages, debris from satellite collisions, or even natural meteoroids temporarily captured by Earth's gravity.

Loading next visibility...
OBJECT G details
Identifier
44885, 2019-093G
Orbit
SSO
Last TLE update9 hours ago
Origin
Flag of TBDUFSC (TBD)
ManufacturerUFSC
MissionOperational Amateur Technology
Bus & MotorCUBESAT 1U, Unknown motor
Mass1 kg wet, 1 kg dry
Launch date (UTC)
2019-12-20 (5 years ago)
Launch vehicle
CHANG ZHENG 4B
Launch site
Taiyaun Space Center, China (TSC)
Object typeUnknown
Shape & HBRBox, Unknown HBR
Radar Cross Section0.015 m², Small (<0.1 m²)

Expand to show TLE details & history

TLE from 9 hours ago
0 OBJECT G
1 44885U 19093G   24361.50716152  .00012437  00000-0  11399-2 0  9996
2 44885  97.8288  83.1054 0011814  42.3619 317.8512 14.94997459272058
Epoch: 2024-12-26T12:10Z
Definitive object data (Epoch: 2024-12-26T12:10:18.755Z)
Latitude0.00005°
Longitude165.04168°
Altitude579.331 km
Speed7.574 km/s
True Right ascension05h 32m 25s
True Declination0° 00' 00"
Sunlit
Object was in full shadow at TLE epoch
Visualization TLE readout
Latitude-81.86777°
Longitude-121.43954°
Altitude615.799 km
Speed7.547 km/s
Apparent Right ascension09h 04m 23s
Apparent Declination-62° 04' 35"
Sunlit
Object is in daylight
Visualization observer readout
Local Sidereal Time20:48:05
Azimuth185.03° SSW
Elevation-67.702°
Doppler factor1
Orbital elements
Apogee altitude587.618 km
Perigee altitude571.179 km
Semi-major axis6,957.535 km
Eccentricity0.0011814
Inclination97.8288°
RAAN83.1054°
Arg. of periapsis42.3619°
True anomaly317.76025°
Mean anomaly317.8512°
Eccentric anomaly317.80574°
Mean motion3.7399 °/min
BSTAR0.0011399
Orbital period96.26 mins
Loading maneuver chart data...
Loading historical data...
Loading historical data...
Loading historical data...
Loading historical data...
Loading historical data...
Loading historical data...
Loading historical data...

OBJECT G Visibility forecast

Observer location: undefined°, undefined

Span
Click to sort rows by Start time (UTC) header in descending order
Start Az.
Max El. time (UTC)
Max El. Az.
Max El.
End time (UTC)
End Az.
6 mins2024-12-27 05:58:06.411Z184.44° SSW2024-12-27 06:01:06.411Z261.881° W39.714°2024-12-27 06:04:06.411Z334.993° NNW
4 mins2024-12-27 17:41:06.411Z61.565° ENE2024-12-27 17:43:06.411Z99.445° ESE19.246°2024-12-27 17:45:06.411Z134.067° SE
5 mins2024-12-27 19:16:06.411Z336.166° NNW2024-12-27 19:18:06.411Z293.113° NW26.202°2024-12-27 19:21:06.411Z234.644° WSW
|